Regional Weather Roundup
Issued by NWS Sioux Falls, SD

Home | Current Version | Previous Version | Graphics & Text | Print | Product List | Glossary On
Versions: 1 2 3 4 5 6 7 8 9 10 11 12 13 14 15 16 17 18 19 20 21 22 23 24 25 26 27 28 29 30 31 32 33 34 35 36 37 38 39 40 41 42 43 44 45 46 47 48 49 50
000
ASUS43 KFSD 211310
RWRFSD

WEATHER ROUNDUP FOR SE SOUTH DAKOTA/SW MINNESOTA/NW IOWA
NATIONAL WEATHER SERVICE SIOUX FALLS SD
700 AM CST SAT JAN 21 2017

NOTE: "FAIR" INDICATES FEW OR NO CLOUDS BELOW 12,000 FEET WITH NO
SIGNIFICANT WEATHER AND OR OBSTRUCTIONS TO VISIBILITY.


SDZ038>040-050-052>070-211400-
SOUTHEAST SOUTH DAKOTA

CITY           SKY/WX    TMP DP  RH WIND       PRES   REMARKS
BROOKINGS      LGT RAIN  34  34 100 S7        29.33R VSB 1/2 WCI  28
CHAMBERLAIN    CLOUDY    28  28 100 W7        29.35S WCI  21
HURON          CLOUDY    26  26 100 NW7       29.35R WCI  18
MADISON        CLOUDY    32  32 100 S5          N/A  WCI  27
MITCHELL       CLOUDY    28  26  92 W12       29.37R WCI  18
SIOUX FALLS    FOG       36  36 100 S5        29.34S VSB 1/4
WINNER         PTSUNNY   29  27  92 W3        29.35R
YANKTON        CLOUDY    36  34  93 W7        29.35R
$$

MNZ071-072-080-081-089-090-097-098-211400-
SOUTHWEST MINNESOTA

CITY           SKY/WX    TMP DP  RH WIND       PRES   REMARKS
FAIRMONT       LGT RAIN  34  33  96 E5        29.38S VSB 3/4 WCI  30
JACKSON        FOG       32  32 100 E5        29.37S VSB 1/4 WCI  27
LUVERNE        FOG       34  32  93 SE3       29.35F VSB 1/4
MARSHALL       FOG       33  33 100 SE8       29.37S VSB 1/2 WCI  26
MONTEVIDEO     FOG       34  34 100 SE7       29.40R VSB 1   WCI  28
PIPESTONE      FOG       36  36 100 SE6       29.32F VSB 1/4
REDWOOD FALLS  FOG       34  33  96 E5        29.39S VSB 1/4 WCI  30
TRACY          DRZL/FOG  34  34 100 SE7       29.37S VSB 1   WCI  28
WINDOM         FOG       34  34 100 E3        29.37S VSB 1/2
WORTHINGTON    FOG       34  34 100 E5          N/A  VSB 1/2 WCI  30
$$

IAZ001>003-012>014-020>022-031-032-NEZ013-014-SDZ071-211400-
NORTHWEST IOWA

CITY           SKY/WX    TMP DP  RH WIND       PRES   REMARKS
CHEROKEE       FOG       35  35 100 CALM      29.37R VSB 1/4
DENISON        FOG       37  37 100 SW3       29.35R VSB<1/4
ESTHERVILLE    FOG       32  32 100 CALM      29.36S VSB 1/4
LE MARS        FOG       36  36 100 CALM      29.37S VSB<1/4
ORANGE CITY    FOG       36  36 100 CALM      29.35S VSB 1/2
SHELDON        FOG       34  34 100 SE5       29.34S VSB 1/4 WCI  30
SIOUX CITY     FOG       38  37  97 W5        29.37R VSB 3/4
SPENCER        FOG       34  34 100 E3        29.37R VSB 1/4
STORM LAKE     FOG       36  36 100 S3        29.36R VSB<1/4
$$

ABBREVIATIONS USED IN REMARKS
   TC - TEMPERATURE IN CELSIUS
  WCI - WIND CHILL INDEX
   HX - HEAT INDEX
  VSB - VISIBILITY





USA.gov is the U.S. government's official web portal to all federal, state and local government web resources and services.